1484733600.35,43404,4.25,73816.0,-7.89,-24.51,-24.41,0,*50
1484733601.59,43405,4.25,73810.8,-7.85,-24.35,-24.31,0,*58
1484733602.83,43406,4.25,73816.5,-7.85,-24.35,-24.31,0,*5B
1484733604.07,43407,4.25,73814.0,-7.85,-24.31,-24.31,0,*5E
1484733605.33,43408,4.25,73812.8,-7.89,-24.41,-24.41,0,*5D
1484733606.61,43409,4.25,73816.3,-7.85,-24.31,-24.21,0,*51
1484733607.9,43410,4.25,73812.3,-7.85,-24.21,-24.21,0,*58
1484733609.15,43411,4.25,73814.3,-7.85,-24.31,-24.31,0,*59
1484733610.41,43412,4.25,73814.8,-7.89,-24.21,-24.25,0,*52
1484733611.68,43413,4.25,73816.3,-7.89,-24.21,-24.25,0,*53
1484733612.89,43414,4.25,73816.3,-7.89,-24.35,-24.35,0,*50
1484733614.12,43415,4.25,73814.8,-7.89,-24.21,-24.35,0,*54
1484733615.39,43416,4.25,73818.5,-7.89,-24.25,-24.25,0,*52
1484733616.65,43417,4.25,73812.3,-7.85,-24.21,-24.35,0,*5A
1484733617.87,43418,4.25,73814.8,-7.89,-24.35,-24.51,0,*5E
1484733619.13,43419,4.25,73812.3,-7.89,-24.21,-24.25,0,*59
1484733620.43,43420,4.25,73816.3,-7.85,-24.21,-24.21,0,*5B
1484733621.69,43421,4.25,73812.8,-7.85,-24.15,-24.31,0,*5C
1484733622.98,43422,4.25,73818.0,-7.85,-23.99,-24.21,0,*5D
1484733624.22,43423,4.25,73814.8,-7.85,-24.05,-24.31,0,*5F
1484733625.5,43424,4.25,73812.8,-7.85,-23.99,-24.15,0,*5C
1484733626.76,43425,4.25,73818.5,-7.85,-23.89,-24.15,0,*5C
1484733628.03,43426,4.25,73814.8,-7.85,-23.89,-24.21,0,*58
1484733629.29,43427,4.25,73816.3,-7.85,-24.05,-24.21,0,*5A
1484733630.56,43428,4.25,73816.3,-7.85,-24.15,-24.31,0,*55
1484733631.85,43429,4.25,73814.0,-7.85,-23.99,-24.21,0,*56
1484733633.13,43430,4.25,73818.5,-7.85,-23.99,-24.15,0,*59
1484733634.39,43431,4.25,73814.8,-7.85,-23.99,-24.31,0,*5E
1484733635.63,43432,4.25,73816.3,-7.83,-23.89,-24.15,0,*5C
1484733636.89,43433,4.25,73818.3,-7.89,-24.21,-24.41,0,*53
1484733638.11,43434,4.25,73816.0,-7.83,-24.05,-24.35,0,*5B
1484733639.35,43435,4.25,73812.8,-7.83,-24.15,-24.51,0,*59
1484733640.57,43436,4.25,73816.3,-7.83,-24.05,-24.31,0,*5D
1484733641.78,43437,4.25,73814.5,-7.83,-24.05,-24.35,0,*58
1484733643.04,43438,4.25,73816.8,-7.85,-24.15,-24.51,0,*52
1484733644.28,43439,4.25,73816.0,-7.83,-24.15,-24.51,0,*55
1484733645.52,43440,4.25,73818.3,-7.83,-24.15,-24.47,0,*5C
1484733646.74,43441,4.25,73818.0,-7.83,-24.05,-24.35,0,*59
1484733648.0,43442,4.25,73816.0,-7.85,-24.15,-24.51,0,*5F
1484733649.22,43443,4.25,73818.0,-7.83,-24.05,-24.47,0,*5E
1484733650.44,43444,4.25,73814.8,-7.83,-23.89,-24.31,0,*5B
1484733651.67,43445,4.25,73816.5,-7.85,-24.05,-24.35,0,*5B
1484733652.89,43446,4.25,73818.5,-7.83,-24.05,-24.35,0,*5E
1484733654.11,43447,4.25,73812.5,-7.83,-24.05,-24.61,0,*5E
1484733655.37,43448,4.25,73816.5,-7.81,-24.15,-24.57,0,*57
1484733656.63,43449,4.25,73818.0,-7.85,-24.15,-24.51,0,*54
1484733657.86,43450,4.25,73816.3,-7.85,-23.89,-24.35,0,*5C
1484733659.12,43451,4.25,73816.3,-7.85,-23.99,-24.35,0,*5C
1484733660.38,43452,4.25,73818.0,-7.85,-23.99,-24.35,0,*5F
1484733661.61,43453,4.25,73818.5,-7.85,-23.89,-24.47,0,*5A
1484733662.83,43454,4.25,73816.5,-7.89,-24.05,-24.51,0,*55
1484733664.08,43455,4.25,73816.5,-7.85,-23.99,-24.35,0,*58
1484733665.35,43456,4.25,73816.0,-7.85,-23.99,-24.47,0,*5E
1484733666.61,43457,4.25,73818.5,-7.81,-23.99,-24.47,0,*5B
1484733667.85,43458,4.25,73814.3,-7.83,-23.99,-24.47,0,*56
1484733669.07,43459,4.25,73816.0,-7.83,-24.05,-24.61,0,*51
1484733670.34,43460,4.25,73816.3,-7.85,-24.15,-24.61,0,*5C
1484733671.6,43461,4.25,73814.8,-7.85,-24.15,-24.51,0,*5E
1484733672.84,43462,4.25,73814.8,-7.85,-24.05,-24.51,0,*5C
1484733674.08,43463,4.25,73814.5,-7.83,-23.99,-24.51,0,*59
1484733675.34,43464,4.25,73812.0,-7.85,-23.99,-24.61,0,*5B
1484733676.6,43465,4.25,73814.8,-7.85,-23.99,-24.51,0,*59
1484733677.84,43466,4.25,73816.8,-7.85,-24.05,-24.51,0,*58
1484733679.13,43467,4.25,73814.8,-7.81,-23.99,-24.41,0,*5E
1484733680.37,43468,4.25,73812.5,-7.83,-24.05,-24.67,0,*55
1484733681.59,43469,4.25,73812.0,-7.83,-24.05,-24.61,0,*52
1484733682.86,43470,4.25,73812.0,-7.81,-23.95,-24.47,0,*52
1484733684.12,43471,4.25,73816.0,-7.83,-24.15,-24.67,0,*5C
1484733685.38,43472,4.25,73814.8,-7.81,-24.11,-24.61,0,*5F
1484733686.6,43473,4.25,73814.0,-7.83,-24.05,-24.77,0,*5E
1484733687.86,43474,4.25,73816.5,-7.85,-24.15,-24.77,0,*5E
1484733689.13,43475,4.25,73814.0,-7.83,-24.15,-24.67,0,*58
1484733690.35,43476,4.25,73814.3,-7.83,-24.05,-24.61,0,*5C
1484733691.59,43477,4.25,73812.5,-7.83,-24.15,-24.77,0,*5B
1484733692.85,43478,4.25,73812.8,-7.83,-24.15,-24.67,0,*55
1484733694.07,43479,4.25,73814.8,-7.83,-24.05,-24.61,0,*53
1484733695.33,43480,4.25,73816.5,-7.83,-24.15,-24.83,0,*58
1484733696.58,43481,4.25,73814.8,-7.83,-24.31,-24.87,0,*5B
1484733697.85,43482,4.25,73816.8,-7.83,-24.21,-24.83,0,*5D
1484733699.1,43483,4.25,73816.0,-7.83,-24.05,-24.67,0,*50
1484733700.34,43484,4.25,73814.3,-7.85,-24.05,-24.77,0,*50
1484733701.61,43485,4.25,73814.8,-7.83,-24.21,-24.83,0,*5A
1484733702.88,43486,4.25,73814.0,-7.83,-24.21,-24.87,0,*5D
1484733704.13,43487,4.25,73814.8,-7.83,-24.35,-24.87,0,*59
1484733705.4,43488,4.25,73814.8,-7.83,-24.21,-24.83,0,*57
1484733706.62,43489,4.25,73816.8,-7.83,-24.05,-24.77,0,*5B
1484733707.84,43490,4.25,73816.0,-7.83,-24.05,-24.77,0,*53
1484733709.09,43491,4.25,73812.3,-7.83,-24.05,-24.83,0,*59
1484733710.36,43492,4.25,73812.8,-7.81,-24.25,-24.77,0,*51
1484733711.63,43493,4.25,73818.0,-7.81,-24.25,-24.93,0,*5A
1484733712.88,43494,4.25,73818.5,-7.83,-24.47,-25.03,0,*53
1484733714.1,43495,4.25,73812.8,-7.83,-24.31,-24.97,0,*5F
1484733715.35,43496,4.25,73812.5,-7.83,-24.31,-24.87,0,*5D
1484733716.59,43497,4.25,73816.3,-7.83,-24.15,-24.77,0,*55
1484733717.83,43498,4.25,73814.0,-7.83,-24.05,-24.83,0,*50
1484733719.1,43499,4.25,73818.0,-7.83,-24.15,-24.87,0,*54
1484733720.34,43500,4.25,73816.5,-7.83,-24.61,-25.03,0,*5B
1484733721.62,43501,4.25,73818.8,-7.83,-24.21,-24.87,0,*53
1484733722.88,43502,4.25,73812.0,-7.83,-24.15,-24.83,0,*53
1484733724.15,43503,4.25,73814.8,-7.83,-24.21,-24.87,0,*51
1484733725.42,43504,4.25,73814.5,-7.83,-24.15,-24.87,0,*51
1484733726.64,43505,4.25,73814.5,-7.83,-24.31,-24.97,0,*57
1484733727.91,43506,4.25,73818.0,-7.83,-24.11,-24.87,0,*57
1484733729.16,43507,4.25,73816.5,-7.83,-24.35,-25.03,0,*5D
1484733730.41,43508,4.25,73812.0,-7.83,-24.31,-24.87,0,*5B
1484733731.67,43509,4.25,73816.5,-7.83,-24.15,-24.83,0,*58
1484733732.89,43510,4.31,73818.8,-7.83,-24.35,-24.97,0,*57
1484733734.18,43511,4.25,73816.0,-7.81,-24.15,-24.83,0,*53
1484733735.45,43512,4.25,73812.0,-7.83,-24.21,-24.83,0,*55
1484733736.72,43513,4.25,73816.0,-7.83,-24.21,-24.87,0,*50
1484733737.96,43514,4.25,73818.8,-7.81,-24.31,-24.93,0,*51
1484733739.26,43515,4.31,73820.5,-7.81,-24.25,-24.83,0,*54
1484733740.55,43516,4.25,73818.3,-7.81,-24.25,-24.83,0,*57
1484733741.84,43517,4.25,73818.8,-7.81,-24.15,-24.83,0,*55
1484733743.11,43518,4.25,73818.0,-7.81,-24.25,-24.97,0,*5C
1484733744.37,43519,4.25,73816.0,-7.81,-24.15,-24.93,0,*5A
1484733745.63,43520,4.25,73814.0,-7.81,-24.15,-24.77,0,*5A
1484733746.91,43521,4.25,73814.3,-7.81,-24.15,-24.83,0,*50
1484733748.21,43522,4.31,73818.3,-7.81,-24.25,-24.83,0,*50
1484733749.46,43523,4.25,73818.3,-7.83,-24.31,-24.83,0,*56
1484733750.75,43524,4.25,73818.0,-7.81,-24.25,-24.83,0,*56
1484733752.04,43525,4.25,73818.8,-7.81,-24.15,-24.83,0,*54
1484733753.32,43526,4.25,73818.3,-7.81,-24.15,-24.83,0,*57
1484733754.61,43527,4.25,73814.0,-7.81,-24.15,-24.83,0,*56
1484733755.87,43528,4.25,73818.3,-7.79,-24.15,-24.83,0,*5E
1484733757.1,43529,4.25,73816.0,-7.79,-24.15,-24.77,0,*54
1484733758.35,43530,4.25,73816.8,-7.79,-24.25,-24.77,0,*5F
1484733759.61,43531,4.25,73814.0,-7.79,-24.25,-24.83,0,*55
1484733760.88,43532,4.25,73816.0,-7.79,-24.25,-24.83,0,*56
1484733762.1,43533,4.25,73818.5,-7.79,-24.47,-24.97,0,*56
1484733763.34,43534,4.25,73816.5,-7.79,-24.41,-24.93,0,*53
1484733764.55,43535,4.25,73814.3,-7.79,-24.31,-24.93,0,*55
1484733765.82,43536,4.25,73816.3,-7.81,-24.11,-24.77,0,*59
1484733767.08,43537,4.25,73816.3,-7.79,-24.25,-24.83,0,*53
1484733768.35,43538,4.25,73816.3,-7.79,-24.25,-24.83,0,*5C
1484733769.59,43539,4.25,73814.8,-7.79,-24.41,-24.93,0,*5E
1484733770.83,43540,4.25,73818.3,-7.79,-24.25,-24.93,0,*52
1484733772.1,43541,4.25,73816.0,-7.79,-24.41,-24.83,0,*50
1484733773.33,43542,4.25,73814.3,-7.77,-24.35,-24.93,0,*5F
1484733774.57,43543,4.25,73814.0,-7.77,-24.35,-24.93,0,*5E
1484733775.81,43544,4.25,73818.3,-7.79,-24.25,-24.93,0,*56
1484733777.06,43545,4.25,73812.5,-7.79,-24.25,-24.77,0,*5D
1484733778.3,43546,4.25,73816.3,-7.79,-24.25,-24.77,0,*5E
1484733779.53,43547,4.25,73816.3,-7.79,-24.15,-24.77,0,*5C
1484733780.77,43548,4.25,73816.3,-7.79,-24.15,-24.77,0,*53
1484733782.04,43549,4.25,73816.8,-7.77,-24.21,-24.77,0,*5B
1484733783.3,43550,4.25,73816.0,-7.79,-24.25,-24.83,0,*52
1484733784.57,43551,4.31,73818.8,-7.77,-24.21,-24.77,0,*52
1484733785.78,43552,4.31,73820.0,-7.79,-24.31,-24.93,0,*54
1484733787.05,43553,4.31,73818.8,-7.77,-24.21,-24.77,0,*50
1484733788.32,43554,4.25,73816.5,-7.77,-24.21,-24.77,0,*57
1484733789.53,43555,4.25,73816.5,-7.75,-24.35,-24.77,0,*51
1484733790.79,43556,4.25,73816.8,-7.77,-24.41,-24.93,0,*59
1484733792.08,43557,4.25,73812.8,-7.77,-24.41,-24.87,0,*5D
1484733793.34,43558,4.25,73816.8,-7.77,-24.35,-24.87,0,*51
1484733794.58,43559,4.25,73818.8,-7.79,-24.41,-24.93,0,*58
1484733795.88,43560,4.25,73816.3,-7.77,-24.25,-24.87,0,*5B
1484733797.14,43561,4.25,73816.0,-7.77,-24.25,-24.77,0,*55
1484733798.41,43562,4.25,73814.3,-7.77,-24.21,-24.77,0,*52
1484733799.65,43563,4.25,73814.3,-7.79,-24.21,-24.77,0,*5D
1484733800.94,43564,4.25,73814.8,-7.77,-24.21,-24.71,0,*52
1484733802.21,43565,4.31,73816.8,-7.77,-24.11,-24.77,0,*56
1484733803.46,43566,4.31,73820.0,-7.77,-24.05,-24.67,0,*51
1484733804.75,43567,4.25,73814.3,-7.77,-24.11,-24.71,0,*52
1484733806.04,43568,4.25,73816.3,-7.77,-24.21,-24.71,0,*5E
1484733807.33,43569,4.25,73816.0,-7.77,-24.11,-24.71,0,*5C
1484733808.62,43570,4.25,73814.0,-7.77,-24.11,-24.71,0,*54
1484733809.87,43571,4.25,73818.0,-7.75,-24.25,-24.77,0,*56
1484733811.15,43572,4.25,73816.8,-7.77,-24.11,-24.71,0,*56
1484733812.36,43573,4.31,73820.5,-7.75,-24.05,-24.57,0,*54
1484733813.61,43574,4.25,73818.5,-7.75,-24.25,-24.77,0,*53
1484733814.88,43575,4.25,73816.5,-7.75,-24.25,-24.87,0,*5D
1484733816.12,43576,4.25,73818.3,-7.75,-24.35,-24.87,0,*5F
1484733817.38,43577,4.25,73814.0,-7.75,-24.11,-24.71,0,*51
1484733818.65,43578,4.25,73812.5,-7.75,-24.21,-24.67,0,*5A
1484733819.91,43579,4.31,73818.3,-7.77,-24.21,-24.77,0,*58
1484733821.14,43580,4.31,73818.8,-7.73,-23.89,-24.51,0,*5B
1484733822.38,43581,4.25,73814.5,-7.75,-24.05,-24.67,0,*5A
1484733823.64,43582,4.25,73816.5,-7.75,-23.95,-24.41,0,*53
1484733824.88,43583,4.25,73816.8,-7.75,-23.89,-24.25,0,*5D
1484733826.14,43584,4.25,73818.8,-7.73,-23.99,-24.51,0,*5E
1484733827.37,43585,4.31,73816.3,-7.75,-24.05,-24.41,0,*5A
1484733828.59,43586,4.25,73814.5,-7.75,-24.05,-24.51,0,*58
1484733829.8,43587,4.31,73818.3,-7.75,-24.05,-24.51,0,*59
1484733831.04,43588,4.31,73816.3,-7.73,-24.05,-24.61,0,*53
1484733832.27,43589,4.31,73818.5,-7.75,-24.11,-24.57,0,*54
1484733833.53,43590,4.31,73818.8,-7.73,-23.99,-24.51,0,*5B
1484733834.77,43591,4.31,73822.8,-7.73,-24.05,-24.61,0,*5B
1484733836.01,43592,4.25,73816.8,-7.73,-24.05,-24.47,0,*5C
1484733837.27,43593,4.31,73816.5,-7.73,-23.99,-24.51,0,*58
1484733838.5,43594,4.25,73812.8,-7.73,-23.89,-24.35,0,*5C
1484733839.75,43595,4.31,73818.0,-7.73,-23.99,-24.47,0,*59
1484733840.99,43596,4.31,73818.5,-7.73,-24.05,-24.47,0,*58
1484733842.25,43597,4.25,73818.3,-7.73,-23.99,-24.35,0,*5E
1484733843.48,43598,4.31,73818.3,-7.73,-24.05,-24.51,0,*51
1484733844.73,43599,4.25,73812.8,-7.75,-24.21,-24.51,0,*50
1484733845.96,43600,4.31,73822.3,-7.73,-24.05,-24.35,0,*51
1484733847.22,43601,4.31,73820.3,-7.73,-23.99,-24.35,0,*52
1484733848.45,43602,4.31,73818.3,-7.73,-24.05,-24.35,0,*53
1484733849.71,43603,4.25,73818.5,-7.75,-24.21,-24.67,0,*55
1484733850.97,43604,4.25,73816.3,-7.73,-24.15,-24.47,0,*51
1484733852.23,43605,4.31,73816.0,-7.73,-23.99,-24.31,0,*52
1484733853.49,43606,4.31,73818.5,-7.73,-23.99,-24.31,0,*51
1484733854.72,43607,4.25,73814.5,-7.71,-24.15,-24.51,0,*57
1484733855.95,43608,4.31,73816.5,-7.71,-24.15,-24.47,0,*5F
1484733857.18,43609,4.31,73820.5,-7.71,-23.99,-24.35,0,*58
1484733858.42,43610,4.31,73816.8,-7.71,-24.21,-24.61,0,*55
1484733859.66,43611,4.31,73816.8,-7.71,-24.21,-24.61,0,*54
1484733860.9,43612,4.31,73818.0,-7.71,-24.35,-24.71,0,*53
1484733862.11,43613,4.31,73818.5,-7.71,-24.31,-24.61,0,*57
1484733863.34,43614,4.31,73818.8,-7.73,-24.05,-24.35,0,*54
1484733864.6,43615,4.25,73814.0,-7.73,-24.15,-24.31,0,*50
1484733865.86,43616,4.31,73818.5,-7.73,-23.89,-24.21,0,*50
1484733867.14,43617,4.31,73818.0,-7.73,-23.85,-24.15,0,*5A
1484733868.42,43618,4.31,73818.5,-7.73,-23.85,-24.15,0,*55
1484733869.68,43619,4.31,73818.3,-7.71,-23.99,-24.21,0,*5C
1484733870.93,43620,4.31,73816.3,-7.71,-23.85,-24.15,0,*5C
1484733872.18,43621,4.31,73816.5,-7.71,-23.85,-24.11,0,*59
1484733873.42,43622,4.25,73814.5,-7.71,-24.15,-24.31,0,*56
1484733874.68,43623,4.31,73816.0,-7.71,-24.15,-24.21,0,*56
1484733875.88,43624,4.25,73818.3,-7.71,-23.89,-24.05,0,*55
1484733877.15,43625,4.25,73818.8,-7.71,-23.99,-24.21,0,*53
1484733878.35,43626,4.25,73818.8,-7.71,-23.89,-24.05,0,*57
1484733879.58,43627,4.25,73814.5,-7.71,-23.99,-24.31,0,*50
1484733880.84,43628,4.25,73816.0,-7.69,-24.15,-24.31,0,*55
1484733882.07,43629,4.25,73818.0,-7.71,-24.15,-24.35,0,*59
1484733883.3,43630,4.25,73818.0,-7.71,-24.21,-24.35,0,*56
1484733884.51,43631,4.31,73816.3,-7.71,-24.05,-24.31,0,*55
1484733885.74,43632,4.25,73818.0,-7.71,-24.15,-24.31,0,*57
1484733886.98,43633,4.31,73816.3,-7.71,-24.05,-24.21,0,*56
1484733888.21,43634,4.31,73820.0,-7.71,-24.05,-24.15,0,*56
1484733889.42,43635,4.31,73816.0,-7.71,-24.05,-24.05,0,*56
1484733890.7,43636,4.25,73812.5,-7.69,-24.15,-24.41,0,*5D
1484733891.94,43637,4.31,73816.8,-7.71,-24.21,-24.35,0,*51
1484733893.16,43638,4.25,73814.5,-7.71,-23.85,-23.89,0,*57
1484733894.42,43639,4.31,73816.8,-7.71,-23.99,-24.15,0,*59
1484733895.68,43640,4.31,73818.5,-7.71,-24.15,-24.21,0,*53
1484733896.91,43641,4.31,73818.5,-7.71,-24.15,-24.31,0,*53
1484733898.11,43642,4.31,73818.5,-7.71,-24.35,-24.35,0,*56
1484733899.32,43643,4.25,73816.3,-7.71,-24.35,-24.47,0,*52
1484733900.54,43644,4.31,73818.5,-7.71,-24.35,-24.47,0,*55
1484733901.8,43645,4.25,73816.8,-7.71,-24.15,-24.21,0,*56
1484733903.02,43646,4.25,73818.0,-7.71,-23.89,-23.99,0,*53
1484733904.25,43647,4.31,73818.3,-7.71,-23.69,-23.75,0,*5E
1484733905.48,43648,4.31,73820.5,-7.71,-23.69,-23.79,0,*5D
1484733906.75,43649,4.31,73818.3,-7.69,-23.69,-23.69,0,*54
1484733907.97,43650,4.25,73818.0,-7.71,-23.69,-23.75,0,*58
1484733909.25,43651,4.31,73820.3,-7.69,-23.65,-23.69,0,*51
1484733910.5,43652,4.31,73816.0,-7.71,-23.65,-23.69,0,*5B
1484733911.76,43653,4.31,73818.3,-7.71,-23.53,-23.69,0,*5F
1484733913.01,43654,4.31,73820.5,-7.71,-23.49,-23.65,0,*5F
1484733914.3,43655,4.25,73814.5,-7.69,-23.49,-23.49,0,*59
1484733915.56,43656,4.31,73818.3,-7.69,-23.43,-23.65,0,*5E
1484733916.83,43657,4.25,73812.8,-7.69,-23.65,-23.65,0,*5B
1484733918.12,43658,4.25,73812.0,-7.69,-23.49,-23.49,0,*54
1484733919.35,43659,4.31,73818.3,-7.67,-23.49,-23.59,0,*5A
1484733920.61,43660,4.25,73818.0,-7.67,-23.65,-23.65,0,*51
1484733921.84,43661,4.31,73816.0,-7.67,-23.59,-23.65,0,*5F
1484733923.07,43662,4.25,73812.8,-7.67,-23.59,-23.65,0,*5C
1484733924.31,43663,4.31,73816.5,-7.67,-23.59,-23.65,0,*5D
1484733925.56,43664,4.25,73816.0,-7.65,-23.43,-23.53,0,*56
1484733926.82,43665,4.25,73816.3,-7.65,-23.43,-23.53,0,*57
1484733928.06,43666,4.25,73816.3,-7.65,-23.43,-23.43,0,*55
1484733929.3,43667,4.25,73814.8,-7.67,-23.43,-23.49,0,*5C
1484733930.54,43668,4.31,73816.0,-7.65,-23.43,-23.43,0,*5B
1484733931.77,43669,4.25,73816.8,-7.65,-23.39,-23.43,0,*57
1484733933.05,43670,4.31,73822.0,-7.65,-23.29,-23.29,0,*52
1484733934.33,43671,4.25,73816.0,-7.65,-23.29,-23.23,0,*59
1484733935.62,43672,4.31,73818.8,-7.65,-23.23,-23.23,0,*50
1484733936.85,43673,4.31,73818.3,-7.61,-23.13,-23.13,0,*55
1484733938.1,43674,4.31,73818.3,-7.61,-23.29,-23.13,0,*5B
1484733939.36,43675,4.25,73816.5,-7.61,-23.23,-23.13,0,*50
1484733940.62,43676,4.31,73818.8,-7.61,-23.23,-23.09,0,*58
1484733941.86,43677,4.31,73818.0,-7.59,-23.19,-23.09,0,*5B
1484733943.11,43678,4.31,73818.8,-7.61,-23.23,-23.09,0,*56
1484733944.35,43679,4.31,73818.0,-7.59,-23.19,-23.09,0,*55
1484733945.61,43680,4.31,73818.8,-7.59,-23.23,-23.03,0,*50
1484733946.85,43681,4.25,73814.8,-7.59,-23.23,-23.09,0,*5B
1484733948.07,43682,4.31,73818.3,-7.59,-23.09,-23.09,0,*50
1484733949.29,43683,4.31,73816.3,-7.59,-23.09,-23.09,0,*51
1484733950.53,43684,4.31,73816.5,-7.59,-23.19,-23.09,0,*57
1484733951.81,43685,4.31,73818.3,-7.57,-23.03,-23.03,0,*59
1484733953.05,43686,4.31,73816.5,-7.57,-23.09,-23.09,0,*5A
1484733954.34,43687,4.31,73818.3,-7.57,-23.19,-23.03,0,*50
1484733955.61,43688,4.31,73816.3,-7.55,-23.03,-22.97,0,*5A
1484733956.87,43689,4.31,73820.3,-7.57,-23.09,-23.03,0,*5F
1484733958.11,43690,4.31,73818.3,-7.55,-22.97,-22.83,0,*5A
1484733959.35,43691,4.31,73818.5,-7.55,-22.97,-22.83,0,*5B
1484733960.59,43692,4.31,73818.8,-7.55,-22.87,-22.83,0,*59
1484733961.8,43693,4.25,73812.8,-7.53,-22.97,-22.83,0,*5F
1484733963.01,43694,4.31,73816.0,-7.53,-22.83,-22.83,0,*5D
1484733964.26,43695,4.31,73816.3,-7.51,-22.93,-22.97,0,*5A
1484733965.47,43696,4.31,73816.0,-7.53,-22.83,-22.83,0,*5F
1484733966.67,43697,4.31,73818.5,-7.53,-22.87,-22.83,0,*5A
1484733967.97,43698,4.31,73820.0,-7.51,-22.77,-22.77,0,*53
1484733969.24,43699,4.31,73816.8,-7.51,-22.83,-22.77,0,*59
1484733970.51,43700,4.31,73818.5,-7.51,-22.77,-22.83,0,*58
1484733971.75,43701,4.31,73818.0,-7.51,-22.83,-22.83,0,*52
1484733973.01,43702,4.31,73818.0,-7.51,-22.83,-22.77,0,*5A
1484733974.31,43703,4.25,73812.5,-7.51,-22.77,-22.77,0,*50
1484733975.58,43704,4.31,73818.3,-7.49,-22.77,-22.77,0,*5E
1484733976.82,43705,4.31,73816.5,-7.49,-22.83,-22.77,0,*54
1484733978.09,43706,4.31,73818.5,-7.49,-22.77,-22.77,0,*5C
1484733979.33,43707,4.31,73816.8,-7.49,-22.77,-22.83,0,*56
1484733980.57,43708,4.31,73818.0,-7.49,-22.83,-22.77,0,*59
1484733981.79,43709,4.31,73820.0,-7.49,-22.93,-22.83,0,*52
1484733983.0,43710,4.31,73818.3,-7.49,-22.83,-22.83,0,*5B
1484733984.24,43711,4.31,73816.5,-7.47,-22.87,-22.87,0,*54
1484733985.5,43712,4.31,73818.3,-7.49,-22.77,-22.77,0,*59
1484733986.76,43713,4.31,73812.8,-7.47,-22.63,-22.73,0,*57
1484733988.02,43714,4.31,73818.0,-7.47,-22.63,-22.73,0,*50
1484733989.28,43715,4.31,73816.0,-7.47,-22.63,-22.73,0,*51
1484733990.54,43716,4.31,73820.0,-7.47,-22.73,-22.63,0,*52
1484733991.76,43717,4.31,73818.3,-7.45,-22.57,-22.63,0,*57
1484733992.97,43718,4.31,73814.5,-7.45,-22.63,-22.57,0,*58
1484733994.18,43719,4.31,73818.8,-7.45,-22.57,-22.57,0,*5E
1484733995.4,43720,4.31,73816.0,-7.45,-22.57,-22.63,0,*53
1484733996.65,43721,4.31,73820.3,-7.43,-22.53,-22.53,0,*53
1484733997.86,43722,4.31,73816.8,-7.45,-22.41,-22.57,0,*51
1484733999.09,43723,4.31,73816.3,-7.43,-22.37,-22.57,0,*57
1484734000.33,43724,4.31,73816.5,-7.43,-22.41,-22.53,0,*55
1484734001.54,43725,4.31,73814.0,-7.45,-22.63,-22.63,0,*51
1484734002.78,43726,4.31,73820.0,-7.43,-22.53,-22.53,0,*54
1484734004.03,43727,4.31,73814.5,-7.45,-22.47,-22.63,0,*55
1484734005.27,43728,4.31,73818.3,-7.43,-22.53,-22.67,0,*5D
1484734006.5,43729,4.31,73816.8,-7.45,-22.63,-22.73,0,*5C
1484734007.73,43730,4.31,73814.5,-7.43,-22.41,-22.67,0,*57
1484734009.0,43731,4.31,73816.8,-7.43,-22.53,-22.73,0,*50
1484734010.24,43732,4.31,73818.8,-7.43,-22.53,-22.67,0,*56
1484734011.5,43733,4.31,73816.0,-7.43,-22.73,-22.83,0,*5F
1484734012.76,43734,4.31,73816.5,-7.45,-22.73,-22.77,0,*55
1484734014.02,43735,4.31,73812.5,-7.43,-22.73,-22.83,0,*59
1484734015.26,43736,4.31,73816.3,-7.43,-22.57,-22.83,0,*5C
1484734016.5,43737,4.31,73816.8,-7.45,-22.57,-22.73,0,*54
1484734017.73,43738,4.31,73816.8,-7.43,-22.37,-22.57,0,*5D
1484734018.97,43739,4.31,73816.5,-7.43,-22.41,-22.57,0,*5D
1484734020.21,43740,4.31,73820.5,-7.45,-22.47,-22.57,0,*53
1484734021.45,43741,4.31,73816.3,-7.43,-22.27,-22.53,0,*56
1484734022.71,43742,4.31,73816.0,-7.43,-22.21,-22.53,0,*53
1484734023.98,43743,4.31,73818.5,-7.43,-22.21,-22.53,0,*52
1484734025.24,43744,4.31,73820.0,-7.43,-22.21,-22.53,0,*55
1484734026.5,43745,4.31,73816.3,-7.43,-22.21,-22.41,0,*57
1484734027.76,43746,4.31,73816.8,-7.43,-22.21,-22.41,0,*54
1484734029.02,43747,4.31,73818.8,-7.43,-22.21,-22.41,0,*55
1484734030.28,43748,4.31,73818.8,-7.43,-22.21,-22.41,0,*5A
1484734031.54,43749,4.31,73814.3,-7.43,-22.17,-22.41,0,*5E
1484734032.8,43750,4.31,73816.5,-7.43,-22.17,-22.41,0,*56
1484734034.06,43751,4.31,73818.8,-7.43,-22.17,-22.37,0,*56
1484734035.33,43752,4.31,73816.0,-7.43,-22.17,-22.37,0,*55
1484734036.59,43753,4.31,73816.8,-7.39,-22.03,-22.17,0,*5E
1484734037.85,43754,4.31,73818.3,-7.39,-21.97,-22.11,0,*51
1484734039.14,43755,4.31,73816.0,-7.39,-21.97,-22.17,0,*56
1484734040.41,43756,4.31,73818.5,-7.39,-21.87,-22.11,0,*52
1484734041.67,43757,4.31,73812.0,-7.37,-21.83,-22.17,0,*5F
1484734042.94,43758,4.31,73814.5,-7.39,-21.87,-22.11,0,*5C
1484734044.22,43759,4.31,73818.3,-7.39,-21.97,-22.31,0,*5E
1484734045.46,43760,4.31,73818.0,-7.43,-22.03,-22.37,0,*51
1484734046.69,43761,4.31,73818.8,-7.43,-22.03,-22.37,0,*50
1484734047.92,43762,4.31,73816.5,-7.43,-22.03,-22.37,0,*53
1484734049.15,43763,4.31,73816.8,-7.43,-22.03,-22.37,0,*52
1484734050.41,43764,4.31,73812.5,-7.39,-21.97,-22.37,0,*56
1484734051.68,43765,4.31,73816.3,-7.37,-21.87,-22.31,0,*5E
1484734052.97,43766,4.31,73818.3,-7.39,-21.87,-22.31,0,*53
1484734054.24,43767,4.31,73814.8,-7.39,-21.73,-22.17,0,*5D
1484734055.5,43768,4.31,73814.5,-7.39,-21.87,-22.11,0,*5F
1484734056.76,43769,4.31,73818.3,-7.39,-21.83,-22.11,0,*5A
1484734058.05,43770,4.31,73818.8,-7.43,-21.87,-22.21,0,*58
1484734059.31,43771,4.31,73818.5,-7.45,-21.83,-22.21,0,*5B
1484734060.55,43772,4.31,73818.5,-7.45,-21.83,-22.27,0,*5E
1484734061.81,43773,4.31,73818.0,-7.45,-21.83,-22.21,0,*59
1484734063.08,43774,4.31,73812.8,-7.43,-21.73,-22.17,0,*52
1484734064.29,43775,4.31,73818.8,-7.45,-21.77,-22.07,0,*50
1484734065.52,43776,4.31,73818.0,-7.45,-21.67,-22.07,0,*52
1484734066.76,43777,4.31,73818.5,-7.45,-21.67,-22.11,0,*54
1484734068.02,43778,4.31,73816.8,-7.39,-21.57,-22.03,0,*50
1484734069.26,43779,4.31,73820.5,-7.45,-21.67,-22.11,0,*5A
1484734070.47,43780,4.31,73818.0,-7.45,-21.63,-22.07,0,*5F
1484734071.68,43781,4.31,73822.5,-7.45,-21.63,-22.07,0,*5E
1484734072.88,43782,4.31,73814.8,-7.45,-21.63,-22.07,0,*5D
1484734074.12,43783,4.31,73814.5,-7.45,-21.53,-22.11,0,*58
1484734075.39,43784,4.31,73818.8,-7.43,-21.43,-21.87,0,*54
1484734076.6,43785,4.31,73818.8,-7.45,-21.47,-21.93,0,*52
1484734077.86,43786,4.31,73818.3,-7.43,-21.43,-21.87,0,*56
1484734079.1,43787,4.31,73814.3,-7.45,-21.39,-21.83,0,*58
1484734080.36,43788,4.31,73814.8,-7.45,-21.33,-21.83,0,*5D
1484734081.59,43789,4.31,73816.3,-7.45,-21.33,-21.93,0,*5D
1484734082.85,43790,4.31,73818.8,-7.45,-21.33,-21.83,0,*54
1484734084.12,43791,4.31,73816.8,-7.43,-21.27,-21.77,0,*5D
1484734085.36,43792,4.31,73812.8,-7.45,-21.27,-21.77,0,*58
1484734086.62,43793,4.31,73814.0,-7.45,-21.27,-21.83,0,*52
1484734087.86,43794,4.31,73812.5,-7.45,-21.27,-21.77,0,*5E
1484734089.09,43795,4.31,73814.0,-7.45,-21.13,-21.67,0,*59
1484734090.33,43796,4.31,73818.5,-7.45,-21.17,-21.67,0,*5E
1484734091.57,43797,4.31,73816.8,-7.45,-21.13,-21.67,0,*5B
1484734092.81,43798,4.31,73816.0,-7.47,-21.13,-21.77,0,*57
1484734094.02,43799,4.31,73818.5,-7.45,-21.13,-21.63,0,*51
1484734095.28,43800,4.31,73816.8,-7.47,-20.99,-21.63,0,*5F
1484734096.57,43801,4.31,73816.8,-7.47,-20.99,-21.53,0,*5D
1484734097.86,43802,4.31,73816.0,-7.47,-20.99,-21.53,0,*5E
1484734099.11,43803,4.31,73814.3,-7.47,-20.89,-21.47,0,*5B
1484734100.37,43804,4.31,73814.8,-7.49,-21.03,-21.67,0,*53
1484734101.67,43805,4.31,73812.8,-7.47,-20.99,-21.53,0,*59
1484734102.93,43806,4.31,73818.8,-7.47,-20.99,-21.47,0,*5F
1484734104.16,43807,4.31,73816.3,-7.49,-20.93,-21.57,0,*5B
1484734105.4,43808,4.31,73818.0,-7.47,-20.73,-21.47,0,*55
1484734106.64,43809,4.31,73818.5,-7.49,-20.73,-21.53,0,*5F
1484734107.88,43810,4.31,73814.5,-7.47,-20.69,-21.39,0,*5E